Weather Roundup
Issued by NWS Corpus Christi, TX

Home | Current Version | Previous Version | Text Only | Print | Product List | Glossary On
Versions: 1 2 3 4 5 6 7 8 9 10 11 12 13 14 15 16 17 18 19 20 21 22 23 24 25 26 27 28 29 30 31 32 33 34 35 36 37 38 39 40 41 42 43 44 45 46 47 48 49 50
000
ASUS44 KCRP 191810
HRRCRP

SOUTH TEXAS REGIONAL WEATHER ROUNDUP
NATIONAL WEATHER SERVICE CORPUS CHRISTI TX
100 PM CDT SUN APR 19 2015


TXZ229>244-191900-
...CORPUS CHRISTI AREA OBSERVATIONS...

CITY           SKY/WX    TMP DP  RH WIND       PRES   REMARKS
CORPUS CHRISTI CLOUDY    79  70  74 S5        29.83F
NAS CORPUS CHR CLOUDY    78  69  73 SE10      29.83F
ROCKPORT       CLOUDY    76  70  82 SE8       29.83S
KINGSVILLE NAS PTSUNNY   81  74  79 CALM      29.82F
ALICE          PTSUNNY   82  70  66 CALM      29.83F
FALFURRIAS     PTSUNNY   82  70  68 SE5       29.83F
$$

...VICTORIA AREA OBSERVATIONS...

CITY           SKY/WX    TMP DP  RH WIND       PRES   REMARKS
VICTORIA       MOSUNNY   79  70  74 SW8       29.82F
BEEVILLE       FAIR      79  70  73 SW3       29.83F
PLEASANTON     MOSUNNY   78  69  74 SW5       29.84F
SAN ANTONIO    MOSUNNY   81  68  64 W15       29.83F
$$

...LAREDO AREA OBSERVATIONS...

CITY           SKY/WX    TMP DP  RH WIND       PRES   REMARKS
LAREDO         PTSUNNY   78  66  66 S3        29.87F
COTULLA        PTSUNNY   78  70  76 VRB5      29.84F
DEL RIO        SUNNY     83  51  33 NW7       29.86F
MCALLEN        PTSUNNY   86  72  62 VRB6      29.81F HX  92
HEBBRONVILLE     N/A     75  68  78 W3        29.86F
$$

...OTHER TEXAS OBSERVATIONS...

CITY           SKY/WX    TMP DP  RH WIND       PRES   REMARKS
BROWNSVILLE    CLOUDY    84  75  74 SE14      29.81F HX  92
HOUSTON        MOSUNNY   81  65  58 SW10G20   29.79F
COL. STATION   MOSUNNY   79  68  69 SW15      29.78F
AUSTIN         SUNNY     83  70  64 S10       29.78F
WACO           SUNNY     80  60  50 W17G26    29.77R
FORT WORTH     MOSUNNY   74  57  55 W21       29.73R
WICHITA FALLS  PTSUNNY   70  55  59 N17G25    29.79S
LUBBOCK        MOSUNNY   65  38  36 N28G37    29.96R
EL PASO        MOSUNNY   72  25  17 W7        30.01F
$$

...MARINE OBSERVATIONS...

STATION/POSITION TIME  SKY/WX   TEMP    WIND        PRES    VSBY  WAVE   SWELL
                                AIR SEA DIR/SP/G                  HT/PER HT/PER
                 (UTC)          (F)     (DEG/KT/KT) (MB)    (MI)  (FT/S) (FT/S)
PORT ARANSAS     1800            74 74  140/  6/  6 1010.8F
BUOY 90 E PORT A 1750            75 75  160/ 12/ 14 1010.1F         2/ 5   2/ 6
BUOY 45 SE BAFFI 1750            75 75  140/ 12/ 14 1009.8F         3/ 6   2/ 6
BUOY 200 E PT IS 1750            78 78   80/  8/  8 1010.2F         3/ 7   3/ 7
BUOY 15 E GALVES 1750            75 73  200/  8/ 10 1009.4S         1/ 6   2/ 6
$$


USA.gov is the U.S. government's official web portal to all federal, state and local government web resources and services.